Regional Weather Roundup
Issued by NWS

Home | Current Version | Previous Version | Graphics & Text | Print | Product List | Glossary On
Versions: 1 2 3 4 5 6 7 8 9 10 11 12 13 14 15 16 17 18 19 20 21 22 23 24 25 26 27 28 29 30 31 32 33 34 35 36 37 38 39 40 41 42 43 44 45 46 47 48 49 50
000
ASUS43 KOAX 301710
RWRNE

WEATHER ROUNDUP FOR NEBRASKA
NATIONAL WEATHER SERVICE OMAHA NE
1200 PM CDT THU OCT 30 2014

NOTES: SATELLITE DATA IS BEING USED TO AUGMENT CLOUD COVER ABOVE
       12000 FEET.
       "FAIR" INDICATES FEW OR NO CLOUDS BELOW 12,000 FEET WITH NO
       SIGNIFICANT WEATHER AND/OR OBSTRUCTIONS TO VISIBILITY.

  * THESE STATIONS DO NOT REPORT WEATHER SUCH AS RAIN...SNOW OR FOG.

NEZ001>004-019>022-054>056-301800-
NEBRASKA PANHANDLE

CITY           SKY/WX    TMP DP  RH WIND       PRES   REMARKS
SCOTTSBLUFF    SUNNY     54  33  45 W8        30.35S
ALLIANCE       SUNNY     57  34  41 NW15      30.31S
CHADRON        SUNNY     56  33  42 NW12      30.31S
KIMBALL        SUNNY     55  30  39 N9        30.35S
SIDNEY         SUNNY     57  31  37 N18       30.35S
$$

NEZ057>060-069>072-079>082-301800-
SOUTHWEST NEBRASKA

CITY           SKY/WX    TMP DP  RH WIND       PRES   REMARKS
NORTH PLATTE   SUNNY     61  31  32 N21G30    30.26F
IMPERIAL       SUNNY     59  32  36 N14       30.31R
LEXINGTON      SUNNY     61  34  36 NW20G25   30.24R
MCCOOK         SUNNY     64  31  28 NW22      30.27R
OGALLALA       SUNNY     58  33  38 NW15      30.30R
$$

NEZ005>010-023>029-035>040-094-301800-
NORTH CENTRAL NEBRASKA

CITY           SKY/WX    TMP DP  RH WIND       PRES   REMARKS
VALENTINE      SUNNY     52  35  52 N20G28    30.26R
AINSWORTH      SUNNY     51  35  53 NW22G33   30.24R
BROKEN BOW     SUNNY     60  35  39 NW24G31   30.22R
O`NEILL        SUNNY     53  39  60 NW24G33   30.19S
ORD            SUNNY     57  35  43 NW20G31   30.18R
THEDFORD       SUNNY     57  34  41 NW23G31   30.26R
$$

NEZ041-046>049-061>064-073>077-083>087-301800-
SOUTH CENTRAL NEBRASKA

CITY           SKY/WX    TMP DP  RH WIND       PRES   REMARKS
GRAND ISLAND   SUNNY     61  37  41 N20G30    30.18R
AURORA         SUNNY     59  33  37 NW24      30.16R
HASTINGS       SUNNY     59  35  40 NW23G31   30.18R
HEBRON         SUNNY     64  35  34 N16G22    30.14S
HOLDREGE       SUNNY     59  33  37 NW16G26   30.21S
KEARNEY *      SUNNY     61  36  39 NW18G24   30.21R
YORK           SUNNY     59  39  47 NW21G26   30.13R
$$

NEZ011>018-030>034-042>045-301800-
NORTHEAST NEBRASKA

CITY           SKY/WX    TMP DP  RH WIND       PRES   REMARKS
NORFOLK        SUNNY     56  41  57 NW18G25   30.12R
ALBION         SUNNY     56  37  48 NW26G35   30.15R
BLAIR          SUNNY     58  40  51 NW20G25   30.07R
COLUMBUS *       N/A    N/A N/A N/A MISG        N/A
FREMONT        SUNNY     58  40  50 NW17G23   30.10S
TEKAMAH        SUNNY     59  41  51 NW20      30.07S
WAYNE          SUNNY     55  41  60 NW15G23   30.12R
$$

NEZ050>053-065>068-078-088>093-301800-
SOUTHEAST NEBRASKA

CITY           SKY/WX    TMP DP  RH WIND       PRES   REMARKS
LINCOLN        SUNNY     61  39  44 N21G26    30.12R
OMAHA EPPLEY   MOSUNNY   59  40  49 NW21G28   30.07R
BEATRICE       SUNNY     60  41  49 NW16G23   30.11R
FALLS CITY     SUNNY     62  39  42 NW14G22   30.05R
NEBRASKA CITY  SUNNY     58  34  39 N14G21    30.07R
PLATTSMOUTH    SUNNY     58  36  44 NW13      30.07R
$$

NEZ044-045-051>053-067-301800-
OMAHA AREA

CITY           SKY/WX    TMP DP  RH WIND       PRES   REMARKS
OMAHA EPPLEY   MOSUNNY   59  40  49 NW21G28   30.07R
BLAIR          SUNNY     58  40  51 NW20G25   30.07R
FREMONT        SUNNY     58  40  50 NW17G23   30.10S
MILLARD        SUNNY     58  40  50 NW13G21   30.07S
OFFUTT AFB     SUNNY     60  40  48 NW16      30.06S
PLATTSMOUTH    SUNNY     58  36  44 NW13      30.07R
WAHOO          FAIR      59  37  43 NW15G23   30.10R
$$



USA.gov is the U.S. government's official web portal to all federal, state and local government web resources and services.